Location: ???????????
(54.5822°N, 39.1075°E)
Time: 07:29:08
(UTC+00:00)

Cosmos 1933 Rocket - Pass Details

Date: 19 May 2025
Orbit: 602 x 623 km, 82.5° (Epoch: 15 June)

Event Time Altitude Azimuth Distance (km) Brightness Sun altitude
Rises 22:55:53 0° 344° (NNW) 2,919 7.9 -12.7°
Reaches altitude 10° 22:58:11 10° 339° (NNW) 2,008 6.9 -12.5°
Maximum altitude 23:02:27 47° 266° (W) 831 4.0 -12.3°
Enters shadow 23:05:29 18° 199° (SSW) 1,544 4.9 -12.1°
